Tracking 19846 objects as of 20-Sep-2019
HD Live streaming from Space Station
objects crossing your sky now

OV1-9

Track OV1-9 now!
10-day predictions
OV1-9 is classified as:


NORAD ID: 2610
Int'l Code: 1966-111A
Perigee: 481.4 km
Apogee: 4,546.3 km
Inclination: 99.1 °
Period: 138.9 minutes
Semi major axis: 8884 km
RCS: 0.6636 m2 (medium)
Launch date: December 11, 1966
Source: United States (US)
Launch site: AIR FORCE WESTERN TEST RANGE (AFWTR)
aabbcc
Your satellite tracking list
Your tracking list is empty




NASA's NSSDC Master Catalog

Two Line Element Set (TLE):
1  2610U 66111A   19261.92940145 +.00000121 +00000-0 +55665-4 0  9992
2  2610 099.1029 059.1431 2287564 171.3486 193.5235 10.36636829977531
Source of the keplerian elements: AFSPC